Regional Weather Roundup
Issued by NWS

Home | Current Version | Previous Version | Graphics & Text | Print | Product List | Glossary On
Versions: 1 2 3 4 5 6 7 8 9 10 11 12 13 14 15 16 17 18 19 20 21 22 23 24 25 26 27 28 29 30 31 32 33 34 35 36 37 38 39 40 41 42 43 44 45 46 47 48 49 50
593
ASUS44 KMEG 242310
RWRTN
TENNESSEE HOURLY STATE WEATHER ROUNDUP
NATIONAL WEATHER SERVICE MEMPHIS TN
500 PM CST FRI FEB 24 2017

TNZ002-004-019-021-049-052-054-088>092-250000-
WEST TENNESSEE

CITY           SKY/WX    TMP DP  RH WIND       PRES   REMARKS
MEMPHIS INTL   CLOUDY    67  56  67 SW8       29.70S
NWS MEMPHIS      N/A     67 N/A N/A MISG        N/A
JACKSON        CLOUDY    67  57  70 SW13      29.69F
UNION CITY     MOCLDY    64  54  68 CALM      29.65S
PARIS          MOCLDY    63  54  72 SW15      29.68S
HUNTINGDON     PTCLDY    66  55  68 SW12      29.68S
$$

TNZ008-025-027-028-033-062-065-066-250000-
NORTH MIDDLE TENNESSEE

CITY           SKY/WX    TMP DP  RH WIND       PRES   REMARKS
NASHVILLE      MOCLDY    77  50  38 SW17G32   29.64R
PORTLAND       PTCLDY    75  54  46 S14G23    29.62S
CLARKSVILLE    MOCLDY    69  52  54 W15G26    29.64R
SMYRNA         PTCLDY    76  54  46 S13G18    29.65S
COOKEVILLE     PTCLDY    75  52  43 SW10G22   29.67R
GALLATIN       PTCLDY    77  54  44 S10G21    29.66R
CROSSVILLE     MOCLDY    70  51  51 S10G21    29.73S
$$

TNZ061-075-076-078-094-096-097-250000-
SOUTH MIDDLE TENNESSEE

CITY           SKY/WX    TMP DP  RH WIND       PRES   REMARKS
FAYETTEVILLE   MOCLDY    75  54  46 SW14G23   29.70R
TULLAHOMA      PTCLDY    73  50  43 S13       29.71R
WINCHESTER     CLEAR     75  54  46 S15       29.70S
MCMINNVILLE    PTCLDY    75  55  50 S8        29.69R
COLUMBIA       MOCLDY    75  54  46 SW9       29.65R
SHELBYVILLE    PTCLDY    75  55  50 SW15      29.69R
$$

TNZ017-018-042-046-047-250000-
NORTHEAST TENNESSEE

CITY           SKY/WX    TMP DP  RH WIND       PRES   REMARKS
TRI CITIES     PTCLDY    74  51  44 S7        29.73S
ELIZABETHTON   CLEAR     72  52  49 SE8       29.75S
$$

TNZ012-013-036-069-073-074-250000-
CENTRAL EAST TENNESSEE

CITY           SKY/WX    TMP DP  RH WIND       PRES   REMARKS
KNOXVILLE      PTCLDY    74  49  41 SW15      29.69F
OAK RIDGE      PTCLDY    76  50  40 S9        29.70F
GATLINBURG     CLEAR     77  46  33 S13       29.69S
MORRISTOWN     CLEAR     75  48  38 SW8       29.70F
JACKSBORO      MOCLDY    73  52  46 S10       29.72S
$$

TNZ083-085-099-250000-
SOUTHEAST TENNESSEE

CITY           SKY/WX    TMP DP  RH WIND       PRES   REMARKS
CHATTANOOGA    MOCLDY    77  52  41 S10G24    29.71S
$$

SKY/WX REPORTED AS FAIR MEANS FEW OR NO CLOUDS BELOW
12 THOUSAND FEET.





USA.gov is the U.S. government's official web portal to all federal, state and local government web resources and services.